Wind_Speed
1 1 1 0 1 1 2 3 3 4 3 3 4 4 4 4 5 5 6 6 7 8 9 9 10 11 12 13 14 15 16 17 17 17 18 19 19 19
1 1 1 2 2 3 3 4 4 4 4 4 4 5 5 5 6 6 7 8 9 9 10 11 11 12 14 15 15 16 17 17 18 18 19 20 20 21
2 2 2 3 3 4 4 4 4 4 4 5 6 6 6 6 7 8 9 10 10 10 11 13 14 15 15 16 16 16 17 18 19 20 21 21 21 22
4 4 3 4 4 4 4 4 5 5 6 6 7 7 7 7 9 9 10 10 11 11 13 14 15 16 16 17 17 18 19 20 21 22 22 22 22 23
5 5 5 5 5 5 6 6 6 7 7 7 8 8 8 9 10 10 11 12 13 14 15 16 16 17 18 18 19 20 21 22 22 23 23 24 25 26
6 6 6 7 7 7 8 8 8 9 9 9 10 10 10 10 10 11 12 13 14 15 16 17 18 18 19 20 21 22 22 23 24 24 25 26 27 28
7 7 8 8 8 8 9 9 9 10 10 11 11 12 12 12 13 13 14 15 16 17 18 19 19 20 21 22 23 24 24 25 26 27 27 28 29 30
9 9 9 9 9 10 10 10 11 11 11 12 12 13 13 14 14 15 17 18 19 19 20 20 21 22 23 24 24 25 26 27 28 29 29 30 31 31
11 11 11 11 11 11 12 12 12 12 13 13 14 14 15 15 16 18 18 19 20 21 21 22 23 24 25 25 26 27 28 29 30 31 32 32 32 32
12 12 12 12 12 13 13 14 14 14 15 15 16 16 17 17 18 19 20 21 22 23 23 24 25 26 27 28 29 30 31 31 32 33 33 33 34 34
13 13 14 14 15 15 15 15 15 16 17 17 17 18 19 19 20 21 22 23 23 24 25 26 27 28 29 30 31 32 32 33 34 35 35 36 36 36
15 16 16 16 16 17 17 17 17 18 18 18 19 20 21 21 22 23 23 24 25 26 27 28 29 30 30 31 33 33 34 35 36 37 37 37 37 38
17 17 17 17 18 18 18 18 19 18 19 20 20 21 22 23 24 25 25 26 28 29 30 30 31 32 32 33 34 35 36 37 38 39 39 39 39 40
18 19 19 19 19 19 19 19 20 20 21 22 23 24 25 26 26 27 28 29 31 32 33 33 33 34 35 35 36 37 38 39 40 40 40 41 41 42
19 20 20 20 20 20 20 21 22 22 23 24 25 26 27 28 29 30 31 32 33 34 35 35 36 37 37 38 38 39 40 40 41 41 42 42 43 44
20 21 21 21 22 22 23 23 24 25 25 26 27 28 29 30 32 32 33 34 35 36 36 37 38 38 39 40 40 41 42 42 43 44 44 45 45 46
22 22 23 23 24 24 25 26 26 27 28 29 30 31 32 33 34 35 36 36 37 38 39 39 40 41 42 42 43 44 44 45 46 47 47 47 48 49
23 24 25 25 26 27 28 28 29 29 31 32 33 33 34 35 36 37 37 38 38 39 40 41 42 43 43 44 45 46 46 48 49 49 50 50 50 51
24 25 26 26 27 28 29 30 31 31 33 34 34 35 36 37 38 38 39 40 40 41 42 43 44 45 46 46 46 47 48 49 50 50 51 51 52 52
26 26 27 27 28 28 29 30 31 32 33 34 35 36 37 38 38 39 40 41 42 43 44 44 45 46 46 47 48 49 49 50 50 51 52 52 52 52
27 28 28 28 28 29 30 31 32 32 34 35 35 36 37 38 39 40 41 43 43 44 45 45 46 47 47 48 49 50 51 52 52 52 52 52 51 52
28 28 28 28 29 29 30 31 32 33 34 35 36 37 38 39 40 41 42 44 44 45 46 46 47 49 49 50 51 52 52 52 52 52 53 53 53 53
27 28 28 28 28 29 30 32 33 34 35 36 37 38 39 40 42 43 43 44 45 46 47 48 49 51 51 52 52 52 52 52 52 52 53 53 54 53
Wind_Direction
266 295 286 297 313 315 303 303 312 321 317 319 321 315 310 303 297 295 295 296 295 294 295 300 301 302 302 301 300 300 299 300 298 296 295 294 292 292
267 292 286 282 292 308 315 317 317 321 324 318 314 310 306 300 299 300 298 295 293 293 293 295 299 302 302 302 301 300 300 300 300 299 298 296 293 292
278 291 288 285 290 294 299 306 314 318 315 308 308 308 301 296 295 296 299 299 297 296 296 297 298 300 300 300 300 300 300 301 300 299 299 298 296 293
280 285 289 292 294 294 297 300 311 313 309 305 303 302 300 298 297 296 298 301 301 301 300 299 300 301 301 301 301 301 301 299 300 300 301 299 297 296
281 285 288 290 293 296 297 298 302 304 306 306 306 302 298 295 293 295 297 300 300 300 300 300 299 299 299 300 302 303 302 302 301 300 300 299 298 297
278 283 285 286 291 295 295 296 297 299 301 302 304 303 302 298 297 297 299 302 300 300 299 299 298 298 300 302 303 304 303 302 300 299 298 297 296 296
279 285 288 290 293 296 297 296 297 299 302 302 301 301 300 301 301 302 304 303 303 302 301 301 302 302 303 304 304 304 302 302 302 302 300 299 298 297
274 280 284 287 292 294 296 296 297 298 299 300 301 302 301 302 302 303 304 305 305 305 305 304 304 304 303 303 302 302 302 303 303 303 301 300 300 298
271 276 280 284 288 290 292 293 294 295 296 298 298 299 299 299 300 301 302 303 304 304 304 304 304 304 304 303 303 303 303 302 302 302 301 300 299 298
273 276 280 283 286 289 290 291 292 294 294 294 295 296 297 298 298 300 301 302 303 303 303 303 303 303 303 303 302 302 303 303 303 304 303 301 299 297
274 276 278 281 282 286 288 288 290 292 293 292 293 294 295 297 299 300 301 302 302 302 303 303 303 303 302 302 302 303 303 304 304 304 303 302 301 298
272 276 278 279 281 285 285 286 287 289 290 291 292 293 295 296 297 299 301 301 301 302 303 304 303 303 302 302 302 302 303 304 304 304 304 303 301 299
271 275 277 279 281 283 284 286 287 289 290 291 292 294 295 295 297 298 299 301 302 302 302 303 304 303 304 303 302 302 302 303 304 304 304 303 302 300
273 275 277 279 281 283 285 285 286 288 290 292 293 294 295 296 296 297 298 300 301 301 302 302 303 302 302 302 302 302 302 303 304 304 304 303 303 301
275 276 278 279 280 281 282 284 285 287 289 291 294 296 296 297 298 298 299 300 301 301 301 302 302 302 303 302 302 302 302 303 303 304 304 304 304 303
275 277 279 279 280 281 282 284 287 288 289 290 292 295 295 295 297 298 298 299 300 301 301 301 301 301 302 302 302 302 303 303 303 303 303 304 303 303
276 276 276 278 280 281 282 283 286 288 289 291 292 294 295 295 296 297 298 298 299 300 300 300 300 301 302 302 302 302 303 303 303 303 303 303 303 303
274 276 277 279 279 281 282 282 285 288 290 292 292 292 294 295 296 297 297 298 299 300 300 301 302 302 302 303 303 302 302 303 303 303 303 303 303 303
276 279 279 280 281 282 283 284 286 287 289 291 293 294 294 295 296 297 298 299 300 301 302 303 303 304 303 302 302 302 302 303 303 303 303 303 304 304
278 279 279 280 282 284 285 285 287 288 290 292 293 295 296 296 296 297 298 299 300 301 303 303 303 303 304 303 303 302 302 303 303 303 303 304 304 304
279 280 280 281 283 285 286 287 288 290 291 293 295 296 296 297 298 299 299 300 301 302 302 303 303 304 305 305 304 303 304 304 304 304 304 304 304 305
281 283 283 283 284 286 287 288 290 292 294 295 296 297 298 299 300 300 300 301 301 302 302 303 304 305 305 305 305 304 304 304 304 304 305 305 305 305
285 286 288 287 286 287 288 290 291 293 294 295 297 298 299 300 301 301 301 301 301 302 302 303 303 304 305 305 305 305 304 304 304 304 305 305 305 305
Height
5873 5873 5872 5872 5871 5871 5870 5870 5869 5868 5868 5866 5865 5864 5863 5863 5862 5861 5861 5860 5859 5858 5857 5856 5855 5854 5853 5851 5850 5848 5847 5845 5843 5842 5840 5839 5837 5835
5873 5873 5872 5872 5871 5871 5870 5869 5868 5868 5867 5866 5865 5864 5863 5862 5861 5860 5859 5858 5857 5856 5855 5854 5853 5851 5850 5848 5846 5845 5843 5841 5840 5838 5836 5834 5833 5831
5873 5872 5872 5871 5871 5870 5869 5868 5868 5867 5866 5865 5864 5863 5862 5861 5860 5859 5858 5856 5855 5854 5853 5852 5850 5849 5847 5845 5843 5841 5840 5838 5836 5834 5832 5830 5828 5826
5872 5872 5871 5871 5870 5869 5869 5868 5867 5866 5865 5864 5863 5861 5860 5859 5858 5857 5856 5854 5853 5852 5850 5849 5847 5845 5843 5841 5840 5838 5836 5833 5831 5829 5827 5825 5822 5820
5871 5871 5870 5870 5869 5868 5868 5867 5866 5865 5864 5863 5861 5860 5858 5857 5856 5855 5853 5852 5851 5849 5847 5846 5844 5842 5840 5838 5835 5833 5831 5828 5826 5823 5821 5819 5816 5814
5870 5870 5869 5868 5868 5867 5866 5865 5864 5863 5862 5861 5859 5858 5857 5855 5854 5852 5851 5850 5848 5846 5844 5842 5840 5838 5836 5833 5831 5828 5826 5823 5820 5817 5815 5812 5809 5807
5868 5868 5867 5866 5866 5865 5864 5863 5862 5861 5860 5859 5857 5856 5855 5853 5851 5850 5848 5847 5845 5842 5840 5838 5835 5833 5831 5828 5826 5823 5820 5817 5814 5811 5808 5805 5802 5799
5866 5865 5865 5864 5864 5863 5862 5861 5860 5859 5858 5856 5855 5854 5852 5850 5849 5847 5845 5843 5841 5839 5836 5834 5831 5828 5825 5823 5820 5817 5814 5811 5807 5804 5800 5797 5794 5791
5863 5863 5862 5862 5861 5860 5859 5858 5857 5856 5855 5854 5852 5851 5849 5847 5845 5843 5841 5839 5837 5834 5832 5829 5826 5823 5820 5816 5813 5810 5807 5803 5800 5796 5793 5789 5785 5782
5860 5860 5859 5859 5858 5857 5856 5855 5854 5853 5852 5850 5849 5847 5845 5843 5841 5839 5837 5834 5832 5829 5826 5824 5820 5817 5813 5810 5806 5803 5799 5795 5791 5788 5784 5780 5776 5773
5857 5856 5855 5855 5854 5853 5852 5851 5850 5849 5848 5846 5845 5843 5841 5839 5837 5835 5832 5829 5827 5823 5820 5817 5814 5811 5807 5803 5799 5795 5791 5787 5783 5778 5774 5770 5766 5763
5853 5852 5851 5851 5850 5849 5848 5847 5846 5844 5843 5842 5840 5838 5836 5834 5832 5829 5826 5824 5821 5818 5814 5811 5807 5804 5800 5796 5792 5787 5783 5778 5774 5769 5764 5760 5756 5752
5848 5847 5847 5846 5845 5844 5843 5842 5841 5839 5838 5836 5834 5833 5830 5828 5826 5823 5820 5817 5814 5811 5807 5804 5800 5796 5792 5788 5784 5779 5774 5769 5765 5760 5755 5750 5746 5741
5843 5843 5842 5841 5840 5839 5838 5837 5835 5834 5832 5831 5829 5826 5824 5822 5819 5816 5813 5810 5806 5803 5799 5795 5792 5787 5783 5779 5775 5770 5765 5760 5755 5750 5745 5740 5735 5731
5838 5837 5836 5836 5835 5834 5832 5831 5830 5828 5826 5825 5822 5820 5817 5814 5811 5808 5805 5802 5798 5795 5791 5786 5782 5778 5774 5769 5765 5760 5756 5751 5745 5740 5735 5730 5724 5720
5832 5831 5831 5830 5829 5827 5826 5825 5823 5822 5820 5817 5815 5813 5810 5807 5804 5800 5797 5793 5790 5786 5781 5777 5772 5768 5764 5759 5754 5749 5744 5740 5735 5729 5724 5719 5713 5707
5826 5825 5824 5823 5822 5821 5819 5818 5816 5814 5812 5810 5807 5805 5801 5798 5795 5791 5788 5784 5780 5776 5772 5767 5762 5758 5753 5748 5743 5738 5733 5727 5722 5717 5712 5706 5701 5694
5820 5819 5817 5816 5815 5813 5812 5810 5808 5806 5804 5801 5798 5796 5792 5789 5785 5782 5778 5774 5770 5765 5761 5756 5752 5747 5742 5736 5731 5725 5720 5714 5709 5703 5697 5692 5687 5680
5813 5811 5810 5808 5807 5805 5803 5802 5800 5797 5795 5792 5789 5786 5782 5779 5775 5771 5767 5763 5759 5754 5750 5745 5740 5734 5729 5725 5719 5713 5707 5702 5696 5690 5684 5678 5672 5666
5805 5803 5802 5800 5798 5797 5795 5793 5791 5788 5785 5782 5779 5776 5772 5768 5764 5760 5756 5752 5747 5742 5737 5732 5727 5721 5716 5711 5706 5700 5693 5687 5682 5676 5670 5664 5657 5651
5796 5795 5793 5792 5790 5788 5786 5784 5781 5779 5776 5772 5769 5765 5761 5757 5753 5749 5745 5740 5735 5730 5725 5720 5714 5708 5703 5697 5692 5686 5680 5673 5667 5661 5655 5649 5643 5637
5788 5786 5784 5783 5781 5779 5777 5774 5772 5769 5766 5762 5759 5755 5751 5746 5742 5738 5733 5728 5723 5718 5712 5707 5701 5695 5689 5684 5677 5672 5665 5659 5652 5646 5639 5634 5627 5622
5780 5778 5776 5774 5772 5770 5767 5765 5762 5759 5756 5752 5748 5744 5740 5735 5731 5726 5721 5716 5710 5705 5700 5694 5688 5682 5676 5669 5663 5656 5650 5644 5637 5632 5626 5619 5612 5606